contact:dominique.lefevre@mio.osupytheas.fr, maurice.libes@osupytheas.fr, didier.mallarino@osupytheas.fr
Project:EMSO http://www.emso-fr.org/EMSO-France
Depth: 2436.0 m
Title:EMSO Ligure Ouest : Data MII capteur AQUADOPP
Date,Latitude,Longitude,X_East,Y_North,Z_Up,Amplitude_X,Amplitude_Y,Amplitude_Z,Batterie,SoundSpeed,Heading,Pitch,Roll,Pressure,TIS,Speed,Direction
, degrees North, degrees East, m.s-1, m.s-1,m.s-1, 1, 1, 1, Volt, m.s-1, degree, degree, degree, dbar, degree_C, m.s-1, degree
2022-06-02T00:01:03,42.805,6.029,-0.014,-0.024,-0.028,105.0,105.0,102.0,13.4,1505.2,329.2,-0.7,1.8,2470.959,13.29,0.027,210.3
2022-06-02T00:04:03,42.805,6.029,0.006,-0.017,0.003,106.0,104.0,103.0,13.4,1505.2,326.6,-0.8,1.8,2470.951,13.29,0.018,160.6
2022-06-02T00:07:03,42.805,6.029,-0.017,-0.034,-0.037,106.0,103.0,102.0,13.4,1505.2,321.3,-0.8,1.8,2470.904,13.29,0.038,206.6
2022-06-02T00:10:03,42.805,6.029,-0.004,-0.003,-0.021,105.0,105.0,104.0,13.4,1505.2,329.6,-0.8,1.8,2470.929,13.29,0.005,233.1
2022-06-02T00:13:03,42.805,6.029,-0.021,-0.02,-0.003,104.0,104.0,103.0,13.4,1505.2,325.5,-0.7,1.8,2470.987,13.29,0.028,226.4
2022-06-02T00:16:03,42.805,6.029,-0.01,-0.023,-0.007,106.0,103.0,102.0,13.4,1505.2,327.6,-0.8,1.8,2470.971,13.29,0.025,203.5
2022-06-02T00:19:03,42.805,6.029,-0.011,-0.027,-0.019,105.0,103.0,102.0,13.4,1505.2,328.4,-0.8,1.8,2470.942,13.29,0.029,202.2
2022-06-02T00:22:03,42.805,6.029,-0.024,-0.044,-0.015,104.0,104.0,104.0,13.4,1505.2,325.4,-0.7,1.9,2470.95,13.29,0.05,208.6
2022-06-02T00:25:03,42.805,6.029,-0.013,-0.018,-0.021,105.0,105.0,104.0,13.3,1505.2,329.4,-0.7,1.8,2470.896,13.29,0.022,215.8
2022-06-02T00:28:03,42.805,6.029,-0.012,-0.014,0.003,106.0,104.0,102.0,13.3,1505.2,324.5,-0.7,1.8,2470.901,13.29,0.018,220.6
2022-06-02T00:31:03,42.805,6.029,-0.014,-0.02,-0.024,104.0,106.0,101.0,13.4,1505.2,327.3,-0.8,1.8,2470.959,13.29,0.024,215.0
2022-06-02T00:34:03,42.805,6.029,0.006,-0.009,-0.015,104.0,104.0,102.0,13.4,1505.2,325.4,-0.8,1.8,2470.925,13.29,0.01,146.3
2022-06-02T00:37:03,42.805,6.029,-0.021,-0.036,-0.003,106.0,104.0,103.0,13.4,1505.2,331.5,-0.8,1.8,2470.88,13.29,0.041,210.3
2022-06-02T00:40:03,42.805,6.029,-0.022,-0.01,-0.016,106.0,104.0,103.0,13.3,1505.2,328.7,-0.7,1.8,2470.932,13.29,0.024,245.6
2022-06-02T00:43:03,42.805,6.029,-0.025,-0.036,-0.015,105.0,105.0,102.0,13.4,1505.2,325.4,-0.8,1.8,2470.904,13.28,0.043,214.8
2022-06-02T00:46:03,42.805,6.029,-0.01,0.001,-0.009,106.0,104.0,104.0,13.4,1505.2,323.8,-0.7,1.8,2470.913,13.28,0.01,275.7
2022-06-02T00:49:03,42.805,6.029,-0.022,-0.01,-0.015,105.0,105.0,103.0,13.4,1505.2,326.7,-0.7,1.8,2470.921,13.29,0.024,245.6
2022-06-02T00:52:03,42.805,6.029,-0.013,-0.026,0.0,105.0,104.0,102.0,13.4,1505.2,324.5,-0.8,1.8,2470.96,13.29,0.029,206.6
2022-06-02T00:55:03,42.805,6.029,-0.01,0.0,-0.016,106.0,105.0,103.0,13.4,1505.2,328.7,-0.8,1.8,2470.949,13.29,0.01,270.0
2022-06-02T00:58:03,42.805,6.029,-0.026,-0.013,-0.007,106.0,105.0,103.0,13.4,1505.2,320.9,-0.7,1.8,2470.904,13.29,0.029,243.4
2022-06-02T01:04:03,42.805,6.029,-0.013,-0.036,0.018,105.0,106.0,104.0,13.4,1505.2,331.6,-0.7,1.8,2470.947,13.28,0.038,199.9
2022-06-02T01:07:03,42.805,6.029,-0.024,-0.037,-0.016,107.0,105.0,103.0,13.4,1505.2,329.3,-0.7,1.8,2470.94,13.28,0.044,213.0
2022-06-02T01:10:03,42.805,6.029,-0.028,-0.028,-0.024,107.0,105.0,103.0,13.3,1505.2,331.5,-0.8,1.8,2470.947,13.28,0.039,225.0
2022-06-02T01:13:03,42.805,6.029,-0.015,-0.041,-0.024,106.0,104.0,104.0,13.3,1505.2,328.4,-0.7,1.8,2470.879,13.29,0.043,200.1
2022-06-02T01:16:03,42.805,6.029,-0.013,-0.036,-0.055,105.0,105.0,104.0,13.3,1505.2,332.7,-0.7,1.9,2470.907,13.29,0.038,199.9
2022-06-02T01:19:03,42.805,6.029,-0.003,-0.03,-0.019,105.0,105.0,103.0,13.4,1505.2,325.9,-0.7,1.8,2470.889,13.29,0.03,185.7
2022-06-02T01:22:03,42.805,6.029,-0.032,-0.026,-0.023,106.0,105.0,102.0,13.4,1505.2,322.8,-0.8,1.8,2470.893,13.29,0.041,230.9
2022-06-02T01:25:03,42.805,6.029,-0.024,-0.025,-0.011,106.0,105.0,104.0,13.3,1505.2,329.2,-0.8,1.8,2470.894,13.29,0.034,223.8
2022-06-02T01:28:03,42.805,6.029,-0.018,-0.01,-0.012,105.0,106.0,103.0,13.3,1505.2,325.1,-0.8,1.8,2470.911,13.29,0.02,240.9
2022-06-02T01:31:03,42.805,6.029,0.0,-0.038,-0.018,105.0,106.0,104.0,13.4,1505.2,332.3,-0.8,1.8,2470.915,13.29,0.038,180.0
2022-06-02T01:34:03,42.805,6.029,0.001,-0.028,-0.012,107.0,106.0,103.0,13.4,1505.2,333.4,-0.8,1.8,2470.899,13.29,0.028,178.0
2022-06-02T01:37:03,42.805,6.029,-0.006,0.013,-0.003,106.0,105.0,104.0,13.4,1505.2,332.5,-0.7,1.8,2470.899,13.29,0.014,335.2
2022-06-02T01:40:03,42.805,6.029,0.002,-0.017,0.005,106.0,104.0,103.0,13.3,1505.2,324.9,-0.8,1.8,2470.908,13.29,0.017,173.3
2022-06-02T01:43:03,42.805,6.029,-0.017,-0.01,-0.033,105.0,106.0,103.0,13.3,1505.2,319.9,-0.8,1.8,2470.905,13.29,0.019,239.5
2022-06-02T01:46:03,42.805,6.029,0.0,-0.023,-0.023,106.0,106.0,104.0,13.3,1505.2,323.5,-0.8,1.8,2470.901,13.29,0.023,180.0
2022-06-02T01:49:03,42.805,6.029,-0.005,-0.019,-0.021,106.0,107.0,104.0,13.3,1505.2,319.9,-0.8,1.8,2470.853,13.29,0.019,194.7
2022-06-02T01:52:03,42.805,6.029,-0.003,-0.021,0.002,106.0,106.0,104.0,13.4,1505.2,333.2,-0.7,1.8,2470.885,13.29,0.021,188.1
2022-06-02T01:55:03,42.805,6.029,-0.021,-0.026,-0.022,106.0,105.0,103.0,13.3,1505.2,328.7,-0.8,1.8,2470.89,13.29,0.033,218.9
2022-06-02T01:58:03,42.805,6.029,-0.009,-0.012,-0.012,106.0,106.0,104.0,13.3,1505.2,333.2,-0.7,1.8,2470.898,13.29,0.015,216.9
2022-06-02T02:04:03,42.805,6.029,-0.026,-0.021,-0.03,106.0,104.0,103.0,13.3,1505.2,328.6,-0.8,1.8,2470.904,13.28,0.033,231.1
2022-06-02T02:07:03,42.805,6.029,-0.008,-0.02,-0.009,106.0,105.0,103.0,13.3,1505.2,325.9,-0.8,1.8,2470.916,13.28,0.021,201.8
2022-06-02T02:10:03,42.805,6.029,0.0,-0.008,0.001,105.0,104.0,103.0,13.3,1505.2,328.0,-0.8,1.8,2470.871,13.29,0.008,180.0
2022-06-02T02:13:03,42.805,6.029,-0.028,-0.016,-0.012,104.0,106.0,103.0,13.3,1505.2,325.9,-0.8,1.8,2470.897,13.29,0.032,240.3
2022-06-02T02:16:03,42.805,6.029,-0.003,-0.009,0.003,106.0,105.0,103.0,13.4,1505.2,327.1,-0.7,1.8,2470.946,13.29,0.009,198.4
2022-06-02T02:19:03,42.805,6.029,-0.007,-0.025,-0.014,106.0,105.0,102.0,13.4,1505.2,321.8,-0.7,1.8,2470.867,13.29,0.025,195.6
2022-06-02T02:22:03,42.805,6.029,-0.017,-0.016,0.003,108.0,105.0,102.0,13.3,1505.2,325.6,-0.8,1.8,2470.882,13.29,0.023,226.7
2022-06-02T02:25:03,42.805,6.029,-0.016,-0.026,-0.014,106.0,105.0,102.0,13.3,1505.2,329.5,-0.7,1.8,2470.889,13.29,0.03,211.6
2022-06-02T02:28:03,42.805,6.029,-0.016,-0.012,-0.031,105.0,105.0,104.0,13.3,1505.2,324.2,-0.7,1.8,2470.918,13.29,0.02,233.1
2022-06-02T02:31:03,42.805,6.029,-0.016,-0.012,-0.029,107.0,104.0,103.0,13.4,1505.2,321.8,-0.7,1.8,2470.842,13.29,0.02,233.1
2022-06-02T02:34:03,42.805,6.029,-0.024,-0.023,-0.011,105.0,105.0,103.0,13.3,1505.2,324.1,-0.7,1.8,2470.85,13.29,0.033,226.2
2022-06-02T02:37:03,42.805,6.029,-0.018,-0.034,0.005,106.0,105.0,103.0,13.3,1505.2,324.5,-0.7,1.8,2470.877,13.29,0.038,207.9
2022-06-02T02:40:03,42.805,6.029,-0.017,-0.029,-0.005,107.0,104.0,103.0,13.4,1505.2,330.4,-0.7,1.8,2470.835,13.29,0.033,210.4
2022-06-02T02:43:03,42.805,6.029,-0.031,-0.018,-0.029,106.0,105.0,103.0,13.3,1505.2,331.6,-0.7,1.8,2470.893,13.29,0.035,239.9
2022-06-02T02:46:03,42.805,6.029,-0.014,-0.012,-0.029,105.0,106.0,103.0,13.3,1505.2,326.9,-0.8,1.8,2470.847,13.29,0.018,229.4
2022-06-02T02:49:03,42.805,6.029,-0.013,-0.013,0.006,106.0,106.0,103.0,13.4,1505.2,324.5,-0.8,1.8,2470.868,13.29,0.018,225.0
2022-06-02T02:52:03,42.805,6.029,-0.025,-0.018,-0.01,106.0,104.0,104.0,13.4,1505.2,322.2,-0.8,1.8,2470.867,13.29,0.03,234.2
2022-06-02T02:55:03,42.805,6.029,-0.025,-0.01,0.015,107.0,105.0,102.0,13.4,1505.2,326.8,-0.8,1.8,2470.88,13.29,0.026,248.2
2022-06-02T02:58:03,42.805,6.029,-0.01,-0.034,-0.017,106.0,106.0,104.0,13.3,1505.2,325.2,-0.7,1.8,2470.875,13.29,0.035,196.4
2022-06-02T03:04:03,42.805,6.029,-0.017,-0.009,-0.03,106.0,107.0,103.0,13.3,1505.2,326.9,-0.8,1.8,2470.927,13.28,0.019,242.1
2022-06-02T03:07:03,42.805,6.029,-0.046,-0.024,-0.037,107.0,106.0,104.0,13.4,1505.2,327.7,-0.7,1.8,2470.893,13.28,0.051,242.4
2022-06-02T03:10:03,42.805,6.029,-0.02,0.0,-0.032,106.0,105.0,104.0,13.4,1505.2,326.1,-0.7,1.8,2470.922,13.29,0.02,270.0
2022-06-02T03:13:03,42.805,6.029,-0.017,-0.003,-0.033,106.0,104.0,104.0,13.3,1505.2,320.4,-0.8,1.8,2470.848,13.29,0.017,260.0
2022-06-02T03:16:03,42.805,6.029,-0.038,-0.023,-0.003,107.0,106.0,104.0,13.4,1505.2,324.8,-0.8,1.8,2470.885,13.29,0.044,238.8
2022-06-02T03:19:03,42.805,6.029,-0.015,-0.007,-0.027,105.0,106.0,104.0,13.3,1505.2,323.9,-0.7,1.8,2470.872,13.29,0.016,245.0
2022-06-02T03:22:03,42.805,6.029,-0.031,0.025,0.009,108.0,105.0,104.0,13.3,1505.2,330.8,-0.8,1.8,2470.874,13.29,0.039,308.9
2022-06-02T03:25:03,42.805,6.029,-0.016,-0.021,-0.015,107.0,106.0,104.0,13.3,1505.2,330.1,-0.8,1.8,2470.832,13.29,0.026,217.3
2022-06-02T03:28:03,42.805,6.029,-0.023,-0.002,0.005,106.0,106.0,103.0,13.4,1505.2,323.6,-0.7,1.8,2470.849,13.29,0.023,265.0
2022-06-02T03:31:03,42.805,6.029,-0.032,-0.015,-0.024,106.0,106.0,103.0,13.3,1505.2,327.6,-0.7,1.8,2470.851,13.29,0.035,244.9
2022-06-02T03:34:03,42.805,6.029,-0.033,-0.006,-0.013,106.0,106.0,103.0,13.3,1505.2,327.8,-0.8,1.8,2470.837,13.29,0.033,259.7
2022-06-02T03:37:03,42.805,6.029,-0.01,-0.004,-0.034,106.0,106.0,104.0,13.3,1505.2,332.3,-0.8,1.8,2470.843,13.29,0.01,248.2
2022-06-02T03:40:03,42.805,6.029,-0.031,0.0,-0.013,106.0,105.0,104.0,13.4,1505.2,321.4,-0.8,1.8,2470.852,13.29,0.03,270.0
2022-06-02T03:43:03,42.805,6.029,-0.022,0.023,0.009,106.0,105.0,104.0,13.4,1505.2,327.1,-0.7,1.8,2470.832,13.29,0.031,316.3
2022-06-02T03:46:03,42.805,6.029,-0.005,-0.007,-0.001,106.0,107.0,103.0,13.4,1505.2,324.0,-0.8,1.8,2470.885,13.29,0.008,215.5
2022-06-02T03:49:03,42.805,6.029,-0.021,0.004,-0.003,106.0,106.0,104.0,13.3,1505.2,324.6,-0.7,1.8,2470.848,13.29,0.021,280.8
2022-06-02T03:52:03,42.805,6.029,-0.01,0.009,-0.016,106.0,106.0,103.0,13.4,1505.2,328.1,-0.8,1.8,2470.827,13.29,0.013,312.0
2022-06-02T03:55:03,42.805,6.029,-0.034,-0.007,-0.022,106.0,105.0,103.0,13.3,1505.2,321.4,-0.8,1.8,2470.823,13.29,0.034,258.4
2022-06-02T03:58:03,42.805,6.029,-0.019,-0.013,-0.04,106.0,105.0,103.0,13.3,1505.2,323.1,-0.8,1.8,2470.828,13.29,0.023,235.6
2022-06-02T04:04:03,42.805,6.029,-0.023,0.003,0.013,107.0,107.0,103.0,13.3,1505.2,332.5,-0.8,1.9,2470.879,13.29,0.023,277.4
2022-06-02T04:07:03,42.805,6.029,-0.006,0.016,-0.005,107.0,106.0,105.0,13.3,1505.2,321.6,-0.8,1.8,2470.891,13.29,0.017,339.4
2022-06-02T04:10:03,42.805,6.029,-0.021,0.003,-0.026,105.0,108.0,104.0,13.3,1505.2,324.0,-0.8,1.8,2470.921,13.29,0.021,278.1
2022-06-02T04:13:03,42.805,6.029,-0.019,0.0,0.016,105.0,107.0,104.0,13.3,1505.2,323.6,-0.8,1.8,2470.874,13.29,0.019,270.0
2022-06-02T04:16:03,42.805,6.029,-0.017,0.005,0.013,107.0,106.0,104.0,13.4,1505.2,331.2,-0.8,1.8,2470.847,13.29,0.017,286.4
2022-06-02T04:19:03,42.805,6.029,-0.033,0.012,0.008,106.0,104.0,104.0,13.3,1505.2,330.8,-0.7,1.8,2470.836,13.29,0.035,290.0
2022-06-02T04:22:03,42.805,6.029,-0.039,0.013,-0.022,106.0,107.0,103.0,13.4,1505.2,327.4,-0.7,1.8,2470.875,13.29,0.041,288.4
2022-06-02T04:25:03,42.805,6.029,-0.02,0.024,0.0,106.0,106.0,103.0,13.3,1505.2,331.1,-0.7,1.8,2470.874,13.29,0.031,320.2
2022-06-02T04:28:03,42.805,6.029,-0.03,0.029,0.003,107.0,105.0,105.0,13.4,1505.2,326.3,-0.8,1.9,2470.857,13.29,0.041,314.0
2022-06-02T04:31:03,42.805,6.029,-0.022,-0.004,-0.003,106.0,107.0,102.0,13.4,1505.2,329.1,-0.8,1.8,2470.875,13.29,0.022,259.7
2022-06-02T04:34:03,42.805,6.029,-0.03,0.0,-0.006,106.0,105.0,105.0,13.3,1505.2,325.5,-0.8,1.8,2470.848,13.29,0.03,270.0
2022-06-02T04:37:03,42.805,6.029,-0.011,0.0,0.003,108.0,105.0,103.0,13.4,1505.2,325.2,-0.8,1.8,2470.837,13.29,0.011,270.0
2022-06-02T04:40:03,42.805,6.029,-0.027,-0.017,-0.016,107.0,105.0,103.0,13.4,1505.2,325.1,-0.8,1.8,2470.847,13.29,0.031,237.8
2022-06-02T04:43:03,42.805,6.029,-0.026,0.01,-0.006,106.0,105.0,104.0,13.4,1505.2,331.1,-0.8,1.8,2470.827,13.29,0.027,291.0
2022-06-02T04:46:03,42.805,6.029,-0.023,0.021,-0.031,106.0,105.0,104.0,13.4,1505.2,329.1,-0.8,1.8,2470.846,13.29,0.031,312.4
2022-06-02T04:49:03,42.805,6.029,-0.019,0.026,-0.023,105.0,106.0,103.0,13.4,1505.2,331.8,-0.8,1.8,2470.851,13.29,0.032,323.8
2022-06-02T04:52:03,42.805,6.029,-0.021,0.011,0.003,107.0,105.0,103.0,13.4,1505.2,329.6,-0.7,1.8,2470.864,13.29,0.023,297.6
2022-06-02T04:55:03,42.805,6.029,-0.015,0.007,0.026,106.0,105.0,103.0,13.4,1505.2,331.7,-0.7,1.8,2470.858,13.29,0.016,295.0
2022-06-02T04:58:03,42.805,6.029,-0.019,0.018,0.015,107.0,105.0,103.0,13.4,1505.2,328.2,-0.8,1.8,2470.825,13.29,0.026,313.5
2022-06-02T05:04:03,42.805,6.029,-0.027,0.01,-0.003,107.0,104.0,103.0,13.4,1505.2,326.4,-0.8,1.8,2470.925,13.29,0.028,290.3
2022-06-02T05:07:03,42.805,6.029,-0.017,-0.011,-0.015,105.0,104.0,103.0,13.4,1505.2,329.7,-0.8,1.8,2470.9,13.29,0.02,237.1
2022-06-02T05:10:03,42.805,6.029,-0.019,0.005,-0.036,106.0,105.0,103.0,13.4,1505.2,323.3,-0.8,1.8,2470.927,13.29,0.019,284.7
2022-06-02T05:13:03,42.805,6.029,-0.022,0.005,0.005,104.0,104.0,103.0,13.3,1505.2,325.7,-0.7,1.9,2470.92,13.29,0.022,282.8
2022-06-02T05:16:03,42.805,6.029,-0.015,-0.002,-0.01,104.0,104.0,101.0,13.4,1505.2,324.2,-0.7,1.8,2470.899,13.29,0.015,262.4
2022-06-02T05:19:03,42.805,6.029,-0.015,0.011,0.015,105.0,102.0,102.0,13.4,1505.2,328.3,-0.7,1.8,2470.885,13.29,0.018,306.3
2022-06-02T05:22:03,42.805,6.029,-0.006,0.001,-0.011,104.0,104.0,102.0,13.3,1505.2,321.3,-0.7,1.8,2470.91,13.29,0.006,279.5
2022-06-02T05:25:03,42.805,6.029,-0.021,0.009,-0.002,104.0,103.0,102.0,13.4,1505.2,326.6,-0.8,1.8,2470.891,13.29,0.022,293.2
2022-06-02T05:28:03,42.805,6.029,-0.032,0.002,-0.006,106.0,103.0,103.0,13.4,1505.2,325.3,-0.8,1.8,2470.853,13.29,0.032,273.6
2022-06-02T05:31:03,42.805,6.029,-0.045,0.002,-0.024,105.0,102.0,102.0,13.4,1505.2,323.9,-0.8,1.8,2470.879,13.29,0.045,272.5
2022-06-02T05:34:03,42.805,6.029,-0.016,0.005,-0.027,104.0,104.0,100.0,13.4,1505.2,329.2,-0.8,1.8,2470.891,13.29,0.016,287.4
2022-06-02T05:37:03,42.805,6.029,-0.006,-0.005,0.0,106.0,103.0,103.0,13.4,1505.2,327.2,-0.8,1.8,2470.889,13.29,0.007,230.2
2022-06-02T05:40:03,42.805,6.029,-0.013,0.005,0.013,103.0,104.0,101.0,13.3,1505.2,321.6,-0.8,1.8,2470.874,13.29,0.013,291.0
2022-06-02T05:43:03,42.805,6.029,-0.06,0.009,-0.029,102.0,102.0,101.0,13.4,1505.2,323.8,-0.7,1.8,2470.844,13.29,0.06,278.5
2022-06-02T05:46:03,42.805,6.029,-0.041,0.007,-0.004,103.0,104.0,101.0,13.4,1505.2,325.7,-0.8,1.8,2470.925,13.29,0.041,279.7
2022-06-02T05:49:03,42.805,6.029,-0.017,-0.003,-0.016,103.0,102.0,102.0,13.4,1505.2,321.8,-0.8,1.8,2470.879,13.29,0.017,260.0
2022-06-02T05:52:03,42.805,6.029,-0.041,0.002,0.013,103.0,102.0,102.0,13.4,1505.2,327.3,-0.8,1.8,2470.892,13.29,0.041,272.8
2022-06-02T05:55:03,42.805,6.029,-0.02,-0.005,-0.041,102.0,102.0,102.0,13.4,1505.2,323.4,-0.8,1.8,2470.867,13.29,0.02,256.0
2022-06-02T05:58:03,42.805,6.029,-0.03,0.018,0.027,103.0,103.0,102.0,13.4,1505.2,325.6,-0.7,1.8,2470.84,13.29,0.034,301.0
2022-06-02T06:04:03,42.805,6.029,-0.039,0.024,-0.002,103.0,103.0,101.0,13.3,1505.2,323.2,-0.8,1.8,2470.953,13.28,0.045,301.6
2022-06-02T06:07:03,42.805,6.029,-0.023,0.005,0.01,103.0,103.0,102.0,13.4,1505.2,328.4,-0.8,1.8,2470.927,13.28,0.023,282.3
2022-06-02T06:10:03,42.805,6.029,-0.04,-0.007,-0.02,104.0,102.0,101.0,13.4,1505.2,328.0,-0.7,1.8,2470.942,13.28,0.04,260.1
2022-06-02T06:13:03,42.805,6.029,-0.027,0.014,-0.029,104.0,103.0,99.0,13.4,1505.2,330.2,-0.8,1.8,2470.917,13.29,0.03,297.4
2022-06-02T06:16:03,42.805,6.029,-0.026,0.012,0.0,104.0,103.0,101.0,13.4,1505.2,326.3,-0.7,1.8,2470.901,13.29,0.028,294.8
2022-06-02T06:19:03,42.805,6.029,-0.025,0.017,0.019,104.0,103.0,101.0,13.3,1505.2,328.8,-0.7,1.8,2470.892,13.29,0.03,304.2
2022-06-02T06:22:03,42.805,6.029,-0.014,-0.005,0.005,104.0,103.0,102.0,13.3,1505.2,328.6,-0.7,1.8,2470.92,13.29,0.014,250.4
2022-06-02T06:25:03,42.805,6.029,-0.031,0.008,-0.017,104.0,103.0,102.0,13.4,1505.2,327.5,-0.7,1.8,2470.901,13.29,0.032,284.5
2022-06-02T06:28:03,42.805,6.029,-0.017,0.014,-0.025,105.0,103.0,102.0,13.4,1505.2,322.7,-0.7,1.9,2470.912,13.29,0.022,309.5
2022-06-02T06:31:03,42.805,6.029,-0.029,0.007,-0.047,102.0,104.0,101.0,13.4,1505.2,321.4,-0.8,1.8,2470.927,13.29,0.029,283.6
2022-06-02T06:34:03,42.805,6.029,-0.054,0.024,-0.032,103.0,103.0,101.0,13.4,1505.2,322.5,-0.7,1.8,2470.913,13.29,0.059,294.0
2022-06-02T06:37:03,42.805,6.029,-0.029,0.001,-0.01,103.0,103.0,101.0,13.4,1505.2,326.6,-0.8,1.8,2470.904,13.29,0.029,272.0
2022-06-02T06:40:03,42.805,6.029,-0.037,-0.006,-0.021,103.0,103.0,102.0,13.4,1505.2,328.2,-0.8,1.8,2470.942,13.29,0.037,260.8
2022-06-02T06:43:03,42.805,6.029,-0.03,-0.002,-0.059,104.0,103.0,101.0,13.3,1505.2,328.4,-0.8,1.8,2470.869,13.29,0.03,266.2
2022-06-02T06:46:03,42.805,6.029,-0.022,0.008,-0.018,104.0,103.0,102.0,13.4,1505.2,320.9,-0.7,1.8,2470.927,13.29,0.023,290.0
2022-06-02T06:49:03,42.805,6.029,-0.015,0.006,-0.028,103.0,103.0,101.0,13.3,1505.2,326.1,-0.7,1.8,2470.908,13.29,0.016,291.8
2022-06-02T06:52:03,42.805,6.029,-0.039,0.008,-0.023,104.0,102.0,100.0,13.3,1505.2,329.4,-0.8,1.8,2470.93,13.29,0.039,281.6
2022-06-02T06:55:03,42.805,6.029,-0.016,-0.014,-0.019,104.0,103.0,100.0,13.3,1505.2,327.0,-0.8,1.8,2470.917,13.29,0.021,228.8
2022-06-02T06:58:03,42.805,6.029,-0.015,-0.009,-0.015,103.0,106.0,101.0,13.4,1505.2,328.5,-0.8,1.8,2470.949,13.29,0.017,239.0
2022-06-02T07:04:03,42.805,6.029,-0.021,-0.007,-0.019,103.0,103.0,101.0,13.4,1505.2,327.7,-0.8,1.8,2470.934,13.28,0.022,251.6
2022-06-02T07:07:03,42.805,6.029,-0.029,-0.012,-0.029,103.0,103.0,102.0,13.4,1505.2,323.5,-0.8,1.8,2470.95,13.28,0.031,247.5
2022-06-02T07:10:03,42.805,6.029,-0.028,0.007,-0.019,103.0,104.0,101.0,13.4,1505.2,331.4,-0.7,1.8,2470.968,13.28,0.028,284.0
2022-06-02T07:13:03,42.805,6.029,-0.008,0.013,0.026,103.0,103.0,101.0,13.4,1505.2,332.1,-0.7,1.9,2470.962,13.29,0.015,328.4
2022-06-02T07:16:03,42.805,6.029,-0.03,-0.022,-0.021,105.0,105.0,101.0,13.3,1505.2,324.7,-0.7,1.8,2470.953,13.29,0.037,233.7
2022-06-02T07:19:03,42.805,6.029,-0.008,0.025,-0.039,105.0,102.0,101.0,13.3,1505.2,324.7,-0.8,1.8,2470.91,13.29,0.026,342.3
2022-06-02T07:22:03,42.805,6.029,0.0,0.0,-0.017,104.0,102.0,101.0,13.3,1505.2,328.0,-0.7,1.8,2470.919,13.29,0.0,0.0
2022-06-02T07:25:03,42.805,6.029,-0.023,0.0,-0.003,104.0,103.0,102.0,13.3,1505.2,326.9,-0.8,1.8,2470.918,13.29,0.023,270.0
2022-06-02T07:28:03,42.805,6.029,-0.025,0.012,-0.013,103.0,103.0,101.0,13.3,1505.2,323.9,-0.7,1.8,2470.95,13.29,0.027,295.6
2022-06-02T07:31:03,42.805,6.029,-0.03,-0.003,-0.011,104.0,104.0,101.0,13.3,1505.2,329.1,-0.8,1.8,2470.974,13.29,0.03,264.3
2022-06-02T07:34:03,42.805,6.029,-0.039,0.007,-0.029,105.0,103.0,101.0,13.4,1505.2,332.7,-0.8,1.8,2470.924,13.29,0.039,280.2
2022-06-02T07:37:03,42.805,6.029,-0.033,-0.01,-0.018,103.0,105.0,102.0,13.3,1505.2,322.2,-0.7,1.8,2470.916,13.29,0.034,253.1
2022-06-02T07:40:03,42.805,6.029,-0.043,-0.002,-0.007,105.0,103.0,101.0,13.4,1505.2,321.1,-0.7,1.8,2470.914,13.29,0.043,267.3
2022-06-02T07:43:03,42.805,6.029,-0.045,-0.026,-0.028,103.0,104.0,102.0,13.3,1505.2,327.4,-0.8,1.8,2470.932,13.29,0.051,240.0
2022-06-02T07:46:03,42.805,6.029,-0.019,-0.002,-0.015,103.0,103.0,101.0,13.4,1505.2,323.3,-0.7,1.8,2470.941,13.29,0.019,264.0
2022-06-02T07:49:03,42.805,6.029,-0.018,0.002,-0.008,102.0,104.0,102.0,13.3,1505.2,331.5,-0.7,1.8,2470.95,13.29,0.018,276.3
2022-06-02T07:52:03,42.805,6.029,-0.017,-0.009,0.018,104.0,103.0,101.0,13.4,1505.2,326.4,-0.7,1.8,2470.938,13.29,0.019,242.1
2022-06-02T07:55:03,42.805,6.029,-0.056,-0.012,-0.009,104.0,102.0,101.0,13.3,1505.2,326.3,-0.8,1.8,2470.89,13.29,0.057,257.9
2022-06-02T07:58:03,42.805,6.029,-0.038,0.028,-0.005,102.0,102.0,102.0,13.3,1505.2,325.5,-0.7,1.8,2470.948,13.29,0.047,306.4
2022-06-02T08:04:03,42.805,6.029,-0.026,0.002,0.0,103.0,102.0,101.0,13.3,1505.2,328.9,-0.7,1.8,2470.978,13.28,0.026,274.4
2022-06-02T08:07:03,42.805,6.029,-0.019,-0.004,0.003,103.0,103.0,101.0,13.4,1505.2,328.2,-0.7,1.8,2470.991,13.28,0.019,258.1
2022-06-02T08:10:03,42.805,6.029,-0.028,-0.002,-0.005,103.0,100.0,102.0,13.4,1505.2,328.6,-0.8,1.8,2470.987,13.28,0.028,265.9
2022-06-02T08:13:03,42.805,6.029,-0.053,-0.003,-0.033,102.0,103.0,101.0,13.3,1505.2,325.3,-0.7,1.8,2470.986,13.28,0.053,266.8
2022-06-02T08:16:03,42.805,6.029,-0.024,-0.014,-0.019,105.0,101.0,102.0,13.3,1505.2,325.6,-0.7,1.8,2470.978,13.29,0.027,239.7
2022-06-02T08:19:03,42.805,6.029,-0.034,-0.018,-0.032,104.0,105.0,101.0,13.4,1505.2,331.9,-0.8,1.8,2470.962,13.29,0.038,242.1
2022-06-02T08:22:03,42.805,6.029,-0.039,0.023,0.019,103.0,104.0,101.0,13.3,1505.2,333.0,-0.8,1.9,2470.946,13.29,0.045,300.5
2022-06-02T08:25:03,42.805,6.029,-0.006,-0.018,-0.003,105.0,103.0,103.0,13.3,1505.2,332.3,-0.8,1.8,2470.943,13.29,0.018,198.4
2022-06-02T08:28:03,42.805,6.029,-0.045,0.003,-0.03,103.0,103.0,103.0,13.4,1505.2,322.7,-0.8,1.8,2470.946,13.29,0.045,273.8
2022-06-02T08:31:03,42.805,6.029,-0.012,0.001,-0.009,102.0,102.0,102.0,13.4,1505.2,330.0,-0.8,1.8,2470.941,13.29,0.012,274.8
2022-06-02T08:34:03,42.805,6.029,-0.016,0.005,-0.001,101.0,103.0,101.0,13.4,1505.2,333.4,-0.7,1.8,2470.936,13.29,0.016,287.4
2022-06-02T08:37:03,42.805,6.029,-0.014,-0.004,-0.021,102.0,102.0,101.0,13.4,1505.2,324.1,-0.7,1.8,2470.93,13.29,0.014,254.1
2022-06-02T08:40:03,42.805,6.029,-0.011,0.002,-0.017,102.0,102.0,101.0,13.3,1505.2,328.7,-0.8,1.8,2470.904,13.29,0.011,280.3
2022-06-02T08:43:03,42.805,6.029,-0.033,-0.007,-0.05,104.0,101.0,100.0,13.4,1505.2,324.4,-0.7,1.8,2470.947,13.29,0.033,258.0
2022-06-02T08:46:03,42.805,6.029,-0.034,0.013,-0.01,105.0,103.0,99.0,13.3,1505.2,329.2,-0.8,1.8,2470.928,13.29,0.036,290.9
2022-06-02T08:49:03,42.805,6.029,-0.023,0.005,0.0,103.0,102.0,102.0,13.3,1505.2,325.1,-0.7,1.8,2470.98,13.29,0.023,282.3
2022-06-02T08:52:03,42.805,6.029,-0.012,0.014,-0.002,103.0,104.0,101.0,13.3,1505.2,330.3,-0.8,1.8,2470.925,13.29,0.018,319.4
2022-06-02T08:55:03,42.805,6.029,-0.025,-0.004,-0.021,102.0,102.0,102.0,13.4,1505.2,325.0,-0.8,1.8,2470.943,13.29,0.025,260.9
2022-06-02T08:58:03,42.805,6.029,-0.026,0.019,0.003,103.0,104.0,101.0,13.4,1505.2,327.6,-0.8,1.8,2470.943,13.29,0.032,306.2
2022-06-02T09:04:03,42.805,6.029,-0.032,-0.006,0.004,103.0,104.0,101.0,13.4,1505.2,331.2,-0.7,1.8,2470.989,13.28,0.032,259.4
2022-06-02T09:07:03,42.805,6.029,-0.001,-0.016,-0.035,102.0,102.0,102.0,13.4,1505.2,331.7,-0.8,1.8,2470.959,13.28,0.016,183.6
2022-06-02T09:10:03,42.805,6.029,-0.039,-0.02,-0.06,103.0,103.0,102.0,13.4,1505.2,324.0,-0.8,1.8,2470.953,13.28,0.043,242.9
2022-06-02T09:13:03,42.805,6.029,-0.027,0.001,0.017,105.0,104.0,100.0,13.4,1505.2,321.3,-0.8,1.8,2470.976,13.28,0.027,272.1
2022-06-02T09:16:03,42.805,6.029,-0.02,0.009,-0.014,104.0,104.0,103.0,13.3,1505.2,328.7,-0.8,1.8,2470.936,13.29,0.021,294.2
2022-06-02T09:19:03,42.805,6.029,-0.031,-0.006,-0.022,103.0,103.0,101.0,13.4,1505.2,325.4,-0.7,1.8,2470.941,13.29,0.031,259.0
2022-06-02T09:22:03,42.805,6.029,-0.027,-0.027,-0.022,103.0,103.0,102.0,13.4,1505.2,323.5,-0.8,1.9,2470.926,13.29,0.038,225.0
2022-06-02T09:25:03,42.805,6.029,-0.027,0.013,-0.006,103.0,104.0,101.0,13.4,1505.2,332.5,-0.8,1.8,2470.935,13.29,0.029,295.7
2022-06-02T09:28:03,42.805,6.029,-0.017,0.0,-0.004,103.0,103.0,101.0,13.4,1505.2,330.8,-0.7,1.8,2470.962,13.29,0.017,270.0
2022-06-02T09:31:03,42.805,6.029,-0.023,-0.029,-0.025,101.0,104.0,102.0,13.4,1505.2,331.0,-0.7,1.8,2470.962,13.29,0.037,218.4
2022-06-02T09:34:03,42.805,6.029,-0.024,-0.008,-0.015,104.0,101.0,102.0,13.3,1505.2,328.2,-0.7,1.8,2470.931,13.29,0.025,251.6
2022-06-02T09:37:03,42.805,6.029,-0.019,-0.012,-0.038,103.0,101.0,102.0,13.3,1505.2,320.7,-0.8,1.8,2470.928,13.29,0.022,237.7
2022-06-02T09:40:03,42.805,6.029,-0.041,-0.02,-0.023,103.0,103.0,101.0,13.4,1505.2,323.1,-0.7,1.8,2470.913,13.29,0.045,244.0
2022-06-02T09:43:03,42.805,6.029,-0.032,-0.01,-0.053,104.0,102.0,101.0,13.4,1505.2,321.9,-0.7,1.8,2470.922,13.29,0.033,252.6
2022-06-02T09:46:03,42.805,6.029,-0.016,0.003,0.0,102.0,102.0,101.0,13.3,1505.2,331.6,-0.8,1.9,2470.936,13.29,0.016,280.6
2022-06-02T09:49:03,42.805,6.029,-0.019,0.005,-0.013,104.0,103.0,101.0,13.4,1505.2,324.9,-0.8,1.8,2470.916,13.29,0.019,284.7